Pagina principale
METAR-TAF:

METAR-TAF

Aeroporti :

Piggs Peak, Swaziland

latitudine: 25-58-04S, longitudine: 31-15-03E, altezza: 1099 m

Osservazione

Il bollettino è stato emesso 59 minuti fa, alle 18:00 UTC
Vento 4 kt da est/sud-est
Temperature 19°C
Umidità 64%
Pressione 1022 hPa

METAR: FDPP 161800Z AUTO 11004KT //// // ////// 19/12 Q1022

Ora: 20:59 (18:59 UTC)


TAF: mancante

Osservazioni e previsioni meteorologiche di più di 4000 aeroporti (messaggi METAR e TAF).

Le stazioni disponibili sono rappresentate dai dischi gialli e rossi sulla carta.

Puntare il mouse per vedere il nome della stazione.

Clicca sopra per visualizzare le osservazioni e previsioni meteorologiche.

Per cambiare la mappa : fare clic sui pulsanti verdi con una croce nera per ingrandire, il pulsante verde con un trattino per diminuire, o sulla freccia verde per le mappe adiacenti.


METAR-TAF: